This is the latest recevied weather packets stored in our database for station/object SA6GOM-3. If no packets are shown the sender has not sent any weather packets the latest 10 day(s).
| Time | Temp. | Humidity | Pressure | Rain* | Wind** | Luminosity | Snow |
|---|---|---|---|---|---|---|---|
| 1778096133 | 6.11° C | 55% | 1013 hPa | - | - | - | - |
| 1778092532 | 8.33° C | 47% | 1012.4 hPa | - | - | - | - |
| 1778088949 | 10.56° C | 41% | 1012.1 hPa | - | - | - | - |
| 1778085348 | 12.22° C | 33% | 1011.9 hPa | - | - | - | - |
| 1778081748 | 13.89° C | 31% | 1011.8 hPa | - | - | - | - |
| 1778078148 | 15.56° C | 28% | 1011.9 hPa | - | - | - | - |
| 1778074548 | 16.67° C | 25% | 1012.1 hPa | - | - | - | - |
| 1778070948 | 17.78° C | 26% | 1012 hPa | - | - | - | - |
| 1778067348 | 18.33° C | 26% | 1012.3 hPa | - | - | - | - |
| 1778063748 | 18.33° C | 22% | 1012.7 hPa | - | - | - | - |
| 1778060148 | 17.78° C | 23% | 1013.1 hPa | - | - | - | - |
| 1778056548 | 25° C | 15% | 1013.4 hPa | - | - | - | - |
| 1778052948 | 21.67° C | 22% | 1013.5 hPa | - | - | - | - |
| 1778049348 | 21.67° C | 25% | 1013.6 hPa | - | - | - | - |
| 1778045747 | 20.56° C | 27% | 1013.8 hPa | - | - | - | - |
| 1778042147 | 15° C | 35% | 1014.1 hPa | - | - | - | - |
| 1778038547 | -2.78° C | 73% | 1014.3 hPa | - | - | - | - |
| 1778034947 | -2.78° C | 77% | 1014.1 hPa | - | - | - | - |
| 1778031347 | -2.22° C | 77% | 1014 hPa | - | - | - | - |
| 1778027747 | -1.67° C | 72% | 1013.7 hPa | - | - | - | - |
| 1778024147 | -0.56° C | 71% | 1013.9 hPa | - | - | - | - |
| 1778020547 | 0.56° C | 68% | 1013.8 hPa | - | - | - | - |
| 1778016947 | 1.67° C | 65% | 1013.7 hPa | - | - | - | - |
| 1778013346 | 2.22° C | 62% | 1013.5 hPa | - | - | - | - |
| 1778009746 | 3.89° C | 59% | 1013.3 hPa | - | - | - | - |
* Rain since midnight (hover to see other rain measurements)
** Current wind speed in m/s (hover to see current wind gust speed)